| time (UTC) | temp F | wind direction | speed knots | gust knots | rain 1hr in | rain 24hr in | rain mn in | humidity % | barometer mb |
| 20260504231850 | 78 | 38 | 5.2 | 7.0 | 0.00 | 0.00 | 0.00 | 48 | 1005.0 |
| 20260504231346 | 78 | 136 | 6.1 | 7.8 | 0.00 | 0.00 | 0.00 | 47 | 1004.9 |
| 20260504230843 | 78 | 203 | 9.6 | 12.2 | 0.00 | 0.00 | 0.00 | 47 | 1005.1 |
| 20260504230340 | 78 | 258 | 7.0 | 8.7 | 0.00 | 0.00 | 0.00 | 47 | 1005.1 |
| 20260504225839 | 79 | 206 | 7.0 | 9.6 | 0.00 | 0.00 | 0.00 | 47 | 1004.9 |
| 20260504225335 | 79 | 73 | 4.3 | 6.1 | 0.00 | 0.00 | 0.00 | 47 | 1005.0 |
| 20260504224833 | 79 | 166 | 5.2 | 7.0 | 0.00 | 0.00 | 0.00 | 47 | 1004.9 |
| 20260504224329 | 79 | 132 | 3.5 | 5.2 | 0.00 | 0.00 | 0.00 | 47 | 1004.7 |
| 20260504223826 | 79 | 242 | 5.2 | 7.8 | 0.00 | 0.00 | 0.00 | 47 | 1004.7 |
| 20260504223321 | 80 | 131 | 7.0 | 11.3 | 0.00 | 0.00 | 0.00 | 47 | 1004.6 |
| 20260504222818 | 80 | 130 | 4.3 | 6.1 | 0.00 | 0.00 | 0.00 | 47 | 1004.6 |
| 20260504222315 | 80 | 235 | 1.7 | 2.6 | 0.00 | 0.00 | 0.00 | 48 | 1004.5 |
| 20260504221814 | 80 | 231 | 4.3 | 6.1 | 0.00 | 0.00 | 0.00 | 46 | 1004.8 |
| 20260504221310 | 80 | 192 | 7.8 | 11.3 | 0.00 | 0.00 | 0.00 | 46 | 1004.7 |
| 20260504220807 | 80 | 284 | 7.8 | 12.2 | 0.00 | 0.00 | 0.00 | 47 | 1004.6 |
| 20260504220304 | 81 | 212 | 8.7 | 13.0 | 0.00 | 0.00 | 0.00 | 46 | 1004.7 |
| 20260504215801 | 81 | 213 | 4.3 | 7.8 | 0.00 | 0.00 | 0.00 | 45 | 1004.5 |
| 20260504215257 | 82 | 197 | 5.2 | 7.0 | 0.00 | 0.00 | 0.00 | 45 | 1004.9 |
| 20260504214753 | 82 | 229 | 3.5 | 5.2 | 0.00 | 0.00 | 0.00 | 44 | 1004.9 |
| 20260504214250 | 82 | 208 | 1.7 | 3.5 | 0.00 | 0.00 | 0.00 | 44 | 1004.9 |
| 20260504213747 | 82 | 193 | 5.2 | 6.1 | 0.00 | 0.00 | 0.00 | 44 | 1004.9 |
| 20260504213243 | 82 | 156 | 6.1 | 9.6 | 0.00 | 0.00 | 0.00 | 44 | 1004.9 |
| 20260504212740 | 81 | 350 | 7.8 | 9.6 | 0.00 | 0.00 | 0.00 | 43 | 1004.7 |
| 20260504212237 | 81 | 254 | 1.7 | 3.5 | 0.00 | 0.00 | 0.00 | 44 | 1004.9 |
| 20260504211734 | 81 | 141 | 4.3 | 5.2 | 0.00 | 0.00 | 0.00 | 44 | 1004.9 |
| 20260504211230 | 81 | 215 | 3.5 | 5.2 | 0.00 | 0.00 | 0.00 | 44 | 1005.0 |
| 20260504210728 | 81 | 223 | 8.7 | 14.8 | 0.00 | 0.00 | 0.00 | 43 | 1004.9 |
| 20260504210225 | 82 | 172 | 8.7 | 13.9 | 0.00 | 0.00 | 0.00 | 43 | 1005.0 |
| 20260504205722 | 82 | 190 | 6.1 | 7.0 | 0.00 | 0.00 | 0.00 | 43 | 1005.2 |
| 20260504205220 | 81 | 195 | 5.2 | 7.0 | 0.00 | 0.00 | 0.00 | 45 | 1005.2 |
| 20260504204718 | 81 | 183 | 8.7 | 11.3 | 0.00 | 0.00 | 0.00 | 44 | 1005.4 |
| 20260504204216 | 82 | 165 | 11.3 | 15.6 | 0.00 | 0.00 | 0.00 | 43 | 1005.4 |
| 20260504203715 | 82 | 197 | 4.3 | 7.0 | 0.00 | 0.00 | 0.00 | 44 | 1005.3 |
| 20260504203212 | 82 | 211 | 7.8 | 8.7 | 0.00 | 0.00 | 0.00 | 44 | 1005.5 |
| 20260504202712 | 81 | 181 | 7.8 | 9.6 | 0.00 | 0.00 | 0.00 | 44 | 1005.6 |
| 20260504202209 | 81 | 197 | 4.3 | 7.0 | 0.00 | 0.00 | 0.00 | 44 | 1005.6 |
| 20260504201706 | 82 | 181 | 3.5 | 7.0 | 0.00 | 0.00 | 0.00 | 45 | 1005.4 |
| 20260504201203 | 81 | 189 | 7.0 | 8.7 | 0.00 | 0.00 | 0.00 | 45 | 1005.5 |
| 20260504200701 | 80 | 191 | 8.7 | 13.9 | 0.00 | 0.00 | 0.00 | 45 | 1005.9 |
| 20260504200152 | 81 | 215 | 7.8 | 11.3 | 0.00 | 0.00 | 0.00 | 44 | 1005.7 |
| 20260504195648 | 82 | 177 | 11.3 | 15.6 | 0.00 | 0.00 | 0.00 | 43 | 1005.7 |
| 20260504195144 | 81 | 207 | 2.6 | 5.2 | 0.00 | 0.00 | 0.00 | 46 | 1005.8 |
| 20260504194641 | 82 | 181 | 8.7 | 11.3 | 0.00 | 0.00 | 0.00 | 43 | 1006.0 |
| 20260504194137 | 81 | 286 | 2.6 | 2.6 | 0.00 | 0.00 | 0.00 | 45 | 1006.0 |
| 20260504193634 | 81 | 180 | 7.8 | 11.3 | 0.00 | 0.00 | 0.00 | 44 | 1006.1 |
| 20260504193132 | 80 | 70 | 3.5 | 7.0 | 0.00 | 0.00 | 0.00 | 46 | 1006.1 |
| 20260504192629 | 81 | 196 | 7.8 | 11.3 | 0.00 | 0.00 | 0.00 | 45 | 1006.2 |
| 20260504192127 | 80 | 227 | 3.5 | 5.2 | 0.00 | 0.00 | 0.00 | 45 | 1006.5 |
| 20260504191626 | 81 | 183 | 7.8 | 11.3 | 0.00 | 0.00 | 0.00 | 44 | 1006.5 |
| 20260504191121 | 81 | 2 | 0.9 | 1.7 | 0.00 | 0.00 | 0.00 | 48 | 1006.5 |
| 20260504190618 | 80 | 168 | 3.5 | 6.1 | 0.00 | 0.00 | 0.00 | 45 | 1006.5 |
| 20260504190115 | 80 | 148 | 8.7 | 13.0 | 0.00 | 0.00 | 0.00 | 45 | 1006.3 |
| 20260504185611 | 79 | 178 | 5.2 | 7.8 | 0.00 | 0.00 | 0.00 | 45 | 1006.4 |
| 20260504185108 | 80 | 224 | 11.3 | 19.1 | 0.00 | 0.00 | 0.00 | 44 | 1006.5 |
| 20260504184603 | 79 | 136 | 4.3 | 7.0 | 0.00 | 0.00 | 0.00 | 45 | 1006.3 |
| 20260504184058 | 79 | 158 | 5.2 | 8.7 | 0.00 | 0.00 | 0.00 | 45 | 1006.3 |
| 20260504183556 | 79 | 249 | 8.7 | 13.0 | 0.00 | 0.00 | 0.00 | 44 | 1006.4 |
| 20260504183054 | 79 | 256 | 7.8 | 13.0 | 0.00 | 0.00 | 0.00 | 45 | 1006.2 |
| 20260504182550 | 78 | 180 | 7.8 | 11.3 | 0.00 | 0.00 | 0.00 | 47 | 1006.1 |
| 20260504182048 | 78 | 249 | 7.8 | 9.6 | 0.00 | 0.00 | 0.00 | 46 | 1006.2 |
| 20260504181545 | 78 | 179 | 10.4 | 14.8 | 0.00 | 0.00 | 0.00 | 45 | 1006.4 |
| 20260504181043 | 79 | 249 | 7.8 | 9.6 | 0.00 | 0.00 | 0.00 | 45 | 1006.4 |
| 20260504180542 | 79 | 210 | 8.7 | 13.9 | 0.00 | 0.00 | 0.00 | 45 | 1006.4 |
| 20260504180040 | 79 | 264 | 9.6 | 13.0 | 0.00 | 0.00 | 0.00 | 45 | 1006.5 |
| 20260504175537 | 79 | 218 | 3.5 | 6.1 | 0.00 | 0.00 | 0.00 | 45 | 1006.7 |
| 20260504175034 | 78 | 239 | 5.2 | 9.6 | 0.00 | 0.00 | 0.00 | 46 | 1006.6 |
| 20260504174532 | 78 | 202 | 11.3 | 13.0 | 0.00 | 0.00 | 0.00 | 45 | 1006.6 |
| 20260504174028 | 78 | 218 | 10.4 | 13.0 | 0.00 | 0.00 | 0.00 | 45 | 1006.5 |
| 20260504173525 | 78 | 211 | 12.2 | 13.9 | 0.00 | 0.00 | 0.00 | 45 | 1006.6 |
| 20260504173023 | 78 | 194 | 5.2 | 7.0 | 0.00 | 0.00 | 0.00 | 46 | 1006.7 |
| 20260504172519 | 77 | 214 | 7.8 | 13.9 | 0.00 | 0.00 | 0.00 | 47 | 1006.7 |
| 20260504172015 | 77 | 211 | 6.1 | 11.3 | 0.00 | 0.00 | 0.00 | 47 | 1006.7 |
| 20260504171512 | 77 | 213 | 7.8 | 12.2 | 0.00 | 0.00 | 0.00 | 47 | 1006.7 |
| 20260504171009 | 77 | 163 | 7.8 | 16.5 | 0.00 | 0.00 | 0.00 | 47 | 1006.6 |
| 20260504170505 | 77 | 228 | 6.1 | 8.7 | 0.00 | 0.00 | 0.00 | 47 | 1006.7 |
| 20260504160425 | 75 | 206 | 9.6 | 14.8 | 0.00 | 0.00 | 0.00 | 48 | 1007.2 |
| 20260504150848 | 72 | 156 | 7.8 | 11.3 | 0.00 | 0.00 | 0.00 | 50 | 1007.3 |
| 20260504150345 | 72 | 183 | 6.1 | 7.8 | 0.00 | 0.00 | 0.00 | 51 | 1007.7 |
| 20260504141315 | 69 | 237 | 2.6 | 5.2 | 0.00 | 0.00 | 0.00 | 52 | 1008.2 |
| 20260504140812 | 69 | 207 | 9.6 | 12.2 | 0.00 | 0.00 | 0.00 | 52 | 1008.2 |
| 20260504140308 | 69 | 188 | 3.5 | 7.0 | 0.00 | 0.00 | 0.00 | 52 | 1008.5 |
| 20260504130737 | 66 | 187 | 5.2 | 7.8 | 0.00 | 0.00 | 0.00 | 55 | 1008.7 |
| 20260504130232 | 66 | 169 | 4.3 | 6.1 | 0.00 | 0.00 | 0.00 | 55 | 1008.6 |
| 20260504120156 | 64 | 194 | 3.5 | 6.1 | 0.00 | 0.00 | 0.00 | 58 | 1008.9 |
| 20260504110624 | 64 | 203 | 3.5 | 5.2 | 0.00 | 0.00 | 0.00 | 56 | 1009.0 |
| 20260504110120 | 64 | 165 | 5.2 | 7.0 | 0.00 | 0.00 | 0.00 | 56 | 1009.2 |
| 20260504100545 | 65 | 90 | 2.6 | 3.5 | 0.00 | 0.00 | 0.00 | 53 | 1009.2 |
| 20260504081939 | 67 | 179 | 4.3 | 7.0 | 0.00 | 0.00 | 0.00 | 49 | 1009.7 |
| 20260504081436 | 67 | 235 | 4.3 | 7.8 | 0.00 | 0.00 | 0.00 | 49 | 1009.7 |
| 20260504080932 | 68 | 180 | 4.3 | 5.2 | 0.00 | 0.00 | 0.00 | 48 | 1009.7 |
| 20260504080429 | 68 | 229 | 5.2 | 7.0 | 0.00 | 0.00 | 0.00 | 48 | 1009.7 |
| 20260504070356 | 68 | 213 | 2.6 | 3.5 | 0.00 | 0.00 | 0.00 | 48 | 1010.3 |
| 20260504050744 | 69 | 206 | 5.2 | 7.0 | 0.00 | 0.00 | 0.00 | 48 | 1011.1 |
| 20260504050242 | 70 | 235 | 6.1 | 7.8 | 0.00 | 0.00 | 0.00 | 47 | 1010.9 |
| 20260504045739 | 69 | 281 | 5.2 | 7.0 | 0.00 | 0.00 | 0.00 | 47 | 1010.9 |
| 20260504045238 | 69 | 246 | 4.3 | 6.1 | 0.00 | 0.00 | 0.00 | 47 | 1010.9 |
| 20260504044737 | 70 | 217 | 2.6 | 3.5 | 0.00 | 0.00 | 0.00 | 47 | 1011.2 |
| 20260504044234 | 70 | 179 | 3.5 | 5.2 | 0.00 | 0.00 | 0.00 | 46 | 1011.0 |
| 20260504043731 | 70 | 164 | 4.3 | 5.2 | 0.00 | 0.00 | 0.00 | 46 | 1011.2 |
| 20260504043227 | 70 | 61 | 2.6 | 3.5 | 0.00 | 0.00 | 0.00 | 46 | 1011.1 |
| 20260504042726 | 70 | 233 | 7.8 | 11.3 | 0.00 | 0.00 | 0.00 | 45 | 1011.0 |
| 20260504042222 | 71 | 285 | 3.5 | 5.2 | 0.00 | 0.00 | 0.00 | 45 | 1011.1 |
| 20260504041718 | 71 | 228 | 4.3 | 7.0 | 0.00 | 0.00 | 0.00 | 45 | 1011.1 |
| 20260504041214 | 71 | 215 | 3.5 | 5.2 | 0.00 | 0.00 | 0.00 | 45 | 1011.3 |
| 20260504040710 | 71 | 158 | 3.5 | 3.5 | 0.00 | 0.00 | 0.00 | 44 | 1011.3 |
| 20260504040208 | 71 | 206 | 3.5 | 5.2 | 0.00 | 0.00 | 0.00 | 44 | 1011.2 |
| 20260504035704 | 71 | 205 | 5.2 | 7.8 | 0.00 | 0.00 | 0.00 | 44 | 1011.3 |
| 20260504035201 | 71 | 205 | 3.5 | 6.1 | 0.00 | 0.00 | 0.00 | 44 | 1011.2 |
| 20260504034659 | 71 | 136 | 2.6 | 3.5 | 0.00 | 0.00 | 0.00 | 44 | 1011.2 |
| 20260504034155 | 71 | 177 | 4.3 | 6.1 | 0.00 | 0.00 | 0.00 | 44 | 1011.2 |
| 20260504033653 | 71 | 221 | 1.7 | 2.6 | 0.00 | 0.00 | 0.00 | 44 | 1011.2 |
| 20260504033150 | 71 | 195 | 4.3 | 5.2 | 0.00 | 0.00 | 0.00 | 44 | 1011.4 |
| 20260504032647 | 71 | 192 | 7.8 | 9.6 | 0.00 | 0.00 | 0.00 | 45 | 1011.4 |
| 20260504032144 | 71 | 216 | 3.5 | 5.2 | 0.00 | 0.00 | 0.00 | 45 | 1011.1 |
| 20260504031641 | 71 | 216 | 3.5 | 3.5 | 0.00 | 0.00 | 0.00 | 46 | 1011.2 |
| 20260504031137 | 70 | 111 | 2.6 | 3.5 | 0.00 | 0.00 | 0.00 | 46 | 1011.3 |
| 20260504030634 | 70 | 106 | 2.6 | 2.6 | 0.00 | 0.00 | 0.00 | 46 | 1011.3 |
| 20260504030131 | 70 | 185 | 2.6 | 3.5 | 0.00 | 0.00 | 0.00 | 47 | 1011.4 |
| 20260504025628 | 70 | 151 | 3.5 | 3.5 | 0.00 | 0.00 | 0.00 | 47 | 1011.3 |
| 20260504025124 | 70 | 215 | 3.5 | 6.1 | 0.00 | 0.00 | 0.00 | 48 | 1011.2 |
| 20260504024622 | 70 | 221 | 4.3 | 6.1 | 0.00 | 0.00 | 0.00 | 49 | 1011.3 |
| 20260504024118 | 71 | 204 | 2.6 | 3.5 | 0.00 | 0.00 | 0.00 | 49 | 1011.3 |
| 20260504023615 | 71 | 201 | 4.3 | 5.2 | 0.00 | 0.00 | 0.00 | 49 | 1011.5 |
| 20260504023111 | 71 | 47 | 1.7 | 1.7 | 0.00 | 0.00 | 0.00 | 50 | 1011.2 |
| 20260504022607 | 70 | 199 | 1.7 | 2.6 | 0.00 | 0.00 | 0.00 | 50 | 1011.2 |
| 20260504022103 | 70 | 97 | 0.9 | 0.9 | 0.00 | 0.00 | 0.00 | 52 | 1011.3 |
| 20260504021601 | 71 | 143 | 1.7 | 2.6 | 0.00 | 0.00 | 0.00 | 51 | 1011.3 |
| 20260504021058 | 71 | 81 | 1.7 | 1.7 | 0.00 | 0.00 | 0.00 | 51 | 1011.2 |
| 20260504020555 | 71 | 51 | 1.7 | 2.6 | 0.00 | 0.00 | 0.00 | 51 | 1011.2 |
| 20260504020051 | 71 | 177 | 1.7 | 2.6 | 0.00 | 0.00 | 0.00 | 51 | 1011.2 |
| 20260504015548 | 71 | 65 | 1.7 | 1.7 | 0.00 | 0.00 | 0.00 | 51 | 1011.1 |
| 20260504015043 | 71 | 122 | 0.9 | 1.7 | 0.00 | 0.00 | 0.00 | 51 | 1011.2 |
| 20260504014540 | 71 | 108 | 1.7 | 1.7 | 0.00 | 0.00 | 0.00 | 51 | 1011.1 |
| 20260504014037 | 72 | 66 | 0.9 | 0.9 | 0.00 | 0.00 | 0.00 | 51 | 1011.1 |
| 20260504013535 | 72 | 37 | 0.9 | 0.9 | 0.00 | 0.00 | 0.00 | 51 | 1011.2 |
| 20260504013032 | 72 | 29 | 0.9 | 0.9 | 0.00 | 0.00 | 0.00 | 50 | 1011.1 |
| 20260504012529 | 73 | 100 | 1.7 | 2.6 | 0.00 | 0.00 | 0.00 | 49 | 1011.0 |
| 20260504012027 | 73 | 63 | 1.7 | 1.7 | 0.00 | 0.00 | 0.00 | 48 | 1011.1 |
| 20260504011523 | 74 | 54 | 0.9 | 1.7 | 0.00 | 0.00 | 0.00 | 47 | 1011.1 |
| 20260504011020 | 74 | 45 | 1.7 | 1.7 | 0.00 | 0.00 | 0.00 | 46 | 1011.0 |
| 20260504010515 | 74 | 173 | 0.9 | 1.7 | 0.00 | 0.00 | 0.00 | 45 | 1010.9 |
| 20260504010011 | 75 | 47 | 1.7 | 1.7 | 0.00 | 0.00 | 0.00 | 45 | 1011.1 |
| 20260504005508 | 75 | 46 | 0.9 | 1.7 | 0.00 | 0.00 | 0.00 | 45 | 1011.0 |
| 20260504005006 | 75 | 179 | 1.7 | 2.6 | 0.00 | 0.00 | 0.00 | 44 | 1011.1 |
| 20260504004503 | 75 | 66 | 0.9 | 1.7 | 0.00 | 0.00 | 0.00 | 45 | 1011.1 |
| 20260504004000 | 76 | 210 | 0.0 | 0.9 | 0.00 | 0.00 | 0.00 | 44 | 1011.1 |
| 20260504003456 | 76 | 219 | 2.6 | 2.6 | 0.00 | 0.00 | 0.00 | 44 | 1011.1 |
| 20260504002953 | 76 | 84 | 1.7 | 1.7 | 0.00 | 0.00 | 0.00 | 44 | 1011.2 |
| 20260504002450 | 76 | 78 | 1.7 | 2.6 | 0.00 | 0.00 | 0.00 | 43 | 1011.2 |
| 20260504001948 | 77 | 161 | 3.5 | 3.5 | 0.00 | 0.00 | 0.00 | 43 | 1011.3 |
| 20260504001445 | 77 | 229 | 1.7 | 1.7 | 0.00 | 0.00 | 0.00 | 43 | 1011.2 |
| 20260504000942 | 77 | 155 | 1.7 | 2.6 | 0.00 | 0.00 | 0.00 | 42 | 1011.3 |
| 20260504000439 | 77 | 135 | 1.7 | 1.7 | 0.00 | 0.00 | 0.00 | 42 | 1011.5 |
| 20260503235936 | 77 | 172 | 2.6 | 3.5 | 0.00 | 0.00 | 0.00 | 41 | 1011.3 |
| 20260503235433 | 77 | 169 | 3.5 | 5.2 | 0.00 | 0.00 | 0.00 | 41 | 1011.5 |
| 20260503234931 | 78 | 200 | 4.3 | 5.2 | 0.00 | 0.00 | 0.00 | 40 | 1011.5 |
| 20260503234428 | 78 | 145 | 6.1 | 9.6 | 0.00 | 0.00 | 0.00 | 40 | 1011.6 |
| 20260503233926 | 78 | 222 | 4.3 | 7.0 | 0.00 | 0.00 | 0.00 | 40 | 1011.7 |
| 20260503233422 | 78 | 76 | 3.5 | 5.2 | 0.00 | 0.00 | 0.00 | 40 | 1011.7 |
| 20260503232919 | 79 | 237 | 5.2 | 6.1 | 0.00 | 0.00 | 0.00 | 40 | 1011.8 |
| 20260503232416 | 79 | 217 | 3.5 | 3.5 | 0.00 | 0.00 | 0.00 | 39 | 1011.6 |